User: anonymous   Login
Location: Grambois
(43.7619°N, 5.5873°E)
Time: 02:49:49
(UTC+00:00)
Language:

BREEZE-M DEB (TANK) - Orbit

View from above orbital plane
View from above orbital plane
View from above satellite
View from above satellite

Ground track
Ground track

The orbit data is extracted from the following two-line orbital elements,

1 39010U 12065C   21127.69242126  .00000322  00000-0  11805-3 0  9997
2 39010  49.6360 219.8682 4654180  11.7466 356.2072  6.16799546187736
Epoch (UTC): 07 May 2021 16:37:05
Eccentricity: 0.4654180
inclination: 49.6360°
perigee height: 336 km
apogee height: 12026 km
right ascension of ascending node: 219.8682°
argument of perigee: 11.7466°
revolutions per day: 6.16799546
mean anomaly at epoch: 356.2072°
orbit number at epoch: 18773

The dashed part of the orbit path shows where the satellite is in the earth's shadow,  

DLR